Location: Diebersbach
(48.5163°N, 8.0558°E)
Time: 15:28:36
(UTC+00:00)

Cosmos 1980 Rocket - Pass Details

Date: 20 June 2021
Orbit: 830 x 849 km, 71.0° (Epoch: 31 July)

Event Time Altitude Azimuth Distance (km) Brightness Sun altitude
Rises 02:36:41 0° 335° (NNW) 3,386 5.7 -6.8°
Reaches altitude 10° 02:39:21 10° 345° (NNW) 2,448 5.1 -6.5°
Maximum altitude 02:44:27 34° 50° (NE) 1,333 4.2 -5.9°
Drops below altitude 10° 02:49:31 10° 115° (ESE) 2,438 4.9 -5.3°
Sets 02:52:10 0° 125° (SE) 3,370 5.5 -5.0°
